Aalto 1 (42775 NORAD) Tracking and Keplerian Element Data

This shows tracking and keplerian element data for the satellite.

Feedback or suggestion? Click here.




ElementValue
Catalog42775
NameAalto 1
Epoch Orbit38764
Epoch Day159.83333738
Epoch Year2024
RAAN189.3546
Inclination97.1022
Eccentricity0.0005775
Argument of Perigee197.4198
Mean Anonmoly162.6865
Mean Motion15.66447153
Decay Rate0.0013028
L11 42775U 17036L 24159.83333738 .00130280 00000-0 12374-2 0 9994
L22 42775 97.1022 189.3546 0005775 197.4198 162.6865 15.66447153387641



Live tracking and technical data element details for Aalto 1 (NORAD 42775). Aalto 1 can be tracked NOW for your location showing map with azimuth and elevation plus other details from your city location.







IsCatalogInMostPopularTable: catalog: 42775, numindb: 644
Update: records affected: 1



GetName: 42775 Aalto 1

Hit Count: updated at: Fri, 14 Jun 2024 19:57:38 GMT